Wind_Speed
61 61 62 62 62 62 61 60 60 59 59 59 59 60 60 61 61 60 59 58 58 59 59 58 58 59 59 59 59 59 60 61 63 63 63 62 61 60 59 59 58 58 58 57 56 54 53 52 51 50 49 48 47 46 45 44 43 41 41 41 40 39 38 36 36 36 37 36 36 35 34 32 29 27 25 24 23 22 21 20 20 19 18 18 18 19
59 59 59 59 59 58 58 58 58 58 57 57 58 59 60 60 60 59 58 57 58 58 58 58 57 57 57 57 57 58 59 60 61 61 60 60 59 58 58 57 56 56 56 55 53 52 50 49 49 48 46 45 44 44 43 42 41 40 39 39 39 38 37 36 34 33 34 34 33 33 32 31 28 25 23 22 21 20 20 19 18 19 19 19 20 22
57 56 56 56 56 57 57 57 57 56 56 57 57 58 59 59 59 57 56 56 56 56 56 57 56 56 56 56 56 57 57 58 58 57 57 57 56 56 55 55 54 54 54 53 51 50 48 46 46 45 44 43 42 42 41 40 39 39 39 39 38 37 37 35 34 33 32 32 31 30 30 29 27 25 24 22 20 19 18 18 18 19 21 22 23 24
54 53 53 54 54 55 55 55 54 54 55 55 56 57 57 57 56 55 54 54 54 54 55 55 55 54 54 55 55 55 55 55 55 54 54 54 54 53 53 52 52 51 51 51 49 47 45 44 43 43 43 42 41 40 40 39 38 38 39 38 37 37 37 36 34 33 32 32 32 31 30 29 28 28 26 24 22 19 18 20 21 21 22 24 25 26
52 52 52 52 52 52 52 52 52 52 53 53 54 55 55 54 53 52 52 52 51 51 52 52 52 52 52 52 52 52 52 52 52 52 52 52 51 50 49 49 49 49 49 49 47 44 43 41 41 41 41 41 41 40 39 38 37 37 38 38 38 38 37 36 35 34 33 33 33 34 33 32 31 30 28 26 25 24 23 24 25 25 25 26 27 28
50 51 51 50 50 50 50 51 51 51 51 52 52 53 52 51 50 49 49 49 48 48 49 49 48 48 48 48 49 48 48 49 49 49 49 49 47 46 46 46 46 47 48 48 44 42 41 41 41 41 41 41 40 39 38 38 37 37 37 39 39 39 39 38 37 36 35 35 35 36 36 36 35 34 32 30 29 28 27 27 28 29 29 30 30 30
50 50 50 49 49 49 50 50 50 50 50 50 51 50 49 48 46 46 46 46 46 45 46 45 45 44 44 45 46 45 46 46 46 46 47 46 44 44 44 43 43 45 47 47 44 42 41 41 41 41 41 40 39 38 38 37 38 38 39 39 40 40 40 39 38 37 37 36 36 37 38 38 37 37 36 35 33 31 30 30 30 31 32 32 33 33
50 49 49 49 49 49 49 49 49 49 49 49 48 47 46 45 44 44 43 43 43 43 43 42 42 42 42 43 44 44 44 45 45 45 44 43 42 42 42 42 42 44 47 47 45 43 42 41 40 40 39 39 38 38 38 39 39 39 40 40 40 40 40 40 40 39 38 38 37 38 39 40 40 40 39 38 36 34 32 32 32 32 33 34 34 35
49 48 48 48 49 49 49 49 49 48 48 48 47 46 44 43 42 42 41 41 41 40 40 40 40 41 40 41 42 44 44 44 44 43 42 41 41 41 41 42 42 43 46 47 46 43 42 40 38 38 38 38 38 38 38 39 40 40 40 40 40 40 41 41 40 40 40 39 39 39 39 40 41 41 41 41 40 38 37 35 34 34 34 35 35 35
49 49 49 49 49 50 50 49 48 48 48 47 47 46 44 42 41 40 40 40 39 39 39 39 40 41 40 40 42 44 44 43 42 42 41 40 40 41 41 42 42 43 45 47 46 43 41 39 37 36 36 37 37 37 38 39 40 40 40 40 40 40 40 41 40 41 41 41 41 40 40 40 40 41 41 41 40 40 39 38 37 37 36 36 36 36
50 50 50 51 51 51 51 50 49 49 49 48 47 46 44 42 41 40 40 40 39 39 39 39 40 41 40 40 41 43 43 43 42 42 41 41 41 41 42 42 42 42 43 45 44 42 41 39 36 35 35 36 37 37 38 38 38 38 38 38 39 39 39 40 40 40 41 41 41 41 41 41 41 42 42 41 39 38 38 38 38 38 38 38 37 37
50 51 51 51 52 51 51 50 50 50 50 49 49 47 45 43 41 41 41 40 40 40 40 40 41 41 41 41 41 42 42 42 42 42 41 41 41 41 42 42 42 42 42 42 43 42 41 38 36 34 33 35 37 37 37 37 37 37 37 37 37 38 38 39 39 38 38 38 38 39 39 40 41 42 41 40 39 38 38 38 38 38 38 38 37 37
50 51 51 51 51 51 51 51 50 50 51 51 50 49 47 44 42 42 42 42 42 42 42 42 41 42 41 41 41 42 42 42 42 42 41 41 41 41 41 41 41 40 40 40 41 42 41 38 35 33 32 33 35 37 37 36 36 35 35 36 36 37 38 38 38 37 36 35 35 36 37 37 37 38 38 38 38 37 37 37 37 38 38 37 36 35
49 50 50 51 51 51 51 51 51 52 52 52 51 49 47 45 43 43 44 44 44 44 44 43 42 42 41 41 41 42 42 42 42 42 42 42 41 41 41 40 39 38 38 38 40 41 41 38 35 32 31 32 34 37 37 36 34 33 32 32 33 35 37 37 37 37 37 35 36 36 35 35 34 35 36 37 37 36 36 36 36 36 36 36 36 36
49 49 50 51 51 52 52 53 53 53 53 52 51 49 48 47 46 46 46 46 45 45 44 43 43 42 41 42 42 42 42 42 42 42 42 42 41 40 39 38 37 37 37 38 39 40 40 39 35 31 29 30 32 35 36 34 30 26 24 26 28 34 39 37 35 36 37 36 36 36 36 36 35 35 36 37 36 37 37 37 37 36 35 35 36 36
49 50 50 50 51 51 52 53 53 52 52 52 51 50 50 49 48 48 47 47 47 46 44 44 43 42 42 43 42 42 42 42 42 42 42 42 41 40 39 38 37 37 38 39 40 40 39 38 33 25 23 25 28 31 31 27 24 22 27 32 37 42 44 43 39 38 40 40 37 37 38 38 38 37 38 38 37 37 37 38 39 39 39 39 38 37
48 49 49 49 49 50 51 52 52 51 51 51 50 50 51 50 49 49 48 48 47 46 45 44 44 43 43 43 43 42 42 42 42 42 42 42 41 40 39 38 38 38 39 39 40 38 36 36 30 19 18 22 25 28 26 21 25 33 39 44 46 45 43 42 40 39 41 43 41 40 41 41 40 38 38 39 39 39 39 39 40 41 42 43 42 40
47 48 48 48 48 49 50 51 51 50 50 50 49 50 51 50 49 49 49 48 47 47 46 46 45 45 44 44 43 43 43 43 44 43 43 42 41 40 40 39 39 39 39 39 37 33 29 31 29 23 24 27 28 27 24 26 36 43 47 49 49 47 45 43 41 39 40 43 45 45 45 44 43 41 40 40 41 41 42 42 43 43 45 46 46 45
45 46 48 48 49 49 50 50 50 49 49 49 49 49 49 49 49 49 49 48 47 47 46 46 46 45 45 45 45 45 45 44 44 44 43 43 42 42 41 40 39 38 38 37 34 28 25 29 32 32 34 33 33 36 34 34 39 46 48 50 50 50 50 49 47 44 42 44 46 48 48 47 46 46 45 44 44 44 44 45 46 47 49 49 49 49
43 44 46 47 49 49 49 49 49 49 48 48 49 48 48 47 48 48 48 47 46 46 45 45 45 45 45 46 46 46 45 45 44 44 43 43 43 42 42 40 39 38 37 36 33 31 33 35 35 38 42 40 40 44 45 43 43 46 48 49 50 51 53 52 49 46 45 47 49 50 50 49 49 48 48 48 48 48 49 50 51 52 53 53 52 51
42 43 45 46 47 48 47 47 48 48 49 48 48 48 47 47 47 47 47 47 46 45 45 45 45 45 46 47 46 46 45 44 45 44 43 43 42 42 42 42 41 39 38 38 37 37 41 43 41 42 47 48 47 49 53 54 51 48 48 47 49 53 56 55 53 50 49 49 51 51 51 51 51 50 50 51 51 51 51 52 54 54 54 54 54 54
42 42 45 46 46 46 46 45 45 46 47 48 47 47 47 47 47 46 46 46 46 46 46 46 46 47 47 47 46 46 46 45 45 44 44 44 43 43 43 43 43 42 41 41 40 40 43 46 48 48 49 53 54 54 57 59 57 52 48 45 46 53 58 57 54 52 50 50 52 53 52 51 52 52 52 52 52 52 52 53 54 54 55 55 56 56
44 44 45 45 44 44 44 43 43 44 45 46 47 47 48 48 47 47 46 46 47 47 47 47 47 47 47 47 47 47 47 47 46 46 45 45 44 45 45 45 45 45 44 43 42 42 45 48 51 53 53 56 58 58 60 63 62 57 53 49 47 49 55 56 55 54 53 53 54 54 53 53 53 54 54 54 53 53 53 53 54 54 55 56 58 59
46 46 46 46 45 44 43 43 43 44 45 45 46 46 48 49 49 48 48 48 48 47 47 47 47 48 49 49 49 49 49 48 48 47 47 47 46 45 46 48 48 48 47 46 46 46 46 48 51 55 57 60 61 62 64 66 66 63 60 57 53 50 51 54 56 58 58 57 56 55 55 55 56 56 57 56 56 55 54 54 54 54 54 55 57 59
49 49 49 49 47 45 44 44 45 46 47 47 47 47 48 50 50 50 50 50 49 48 48 48 49 49 50 51 50 50 50 49 49 49 48 48 47 45 46 48 49 48 49 49 48 49 49 50 52 54 58 61 64 65 66 68 69 67 64 59 55 53 52 54 57 60 60 59 59 58 58 58 59 59 59 59 58 57 57 56 56 56 55 56 56 57
52 52 51 51 50 47 47 48 49 50 50 50 50 49 50 51 51 51 51 50 49 49 49 49 50 50 51 51 51 51 51 51 51 51 50 50 49 47 48 50 49 49 50 49 48 49 50 51 52 54 56 59 62 65 67 69 69 69 67 63 59 58 58 58 60 61 61 62 62 61 61 61 61 62 61 61 60 59 58 58 57 57 57 56 56 56
55 55 53 52 53 52 51 52 53 53 52 52 52 51 50 51 51 51 51 50 50 50 50 50 51 51 51 51 52 52 52 53 53 53 52 52 51 50 51 52 51 51 51 51 50 50 51 52 53 54 55 56 58 60 64 66 68 68 68 66 64 62 61 61 61 62 62 63 63 63 63 63 63 63 62 62 62 61 60 59 58 58 58 57 56 55
57 58 56 54 55 55 54 54 55 55 54 54 53 52 52 52 52 52 52 52 52 52 52 52 52 53 53 53 54 54 54 54 54 54 54 53 53 52 52 53 53 53 53 53 53 53 53 54 55 56 56 57 57 58 60 62 64 65 65 65 64 63 62 62 63 63 63 63 64 64 64 63 63 63 63 63 63 63 62 61 60 59 58 57 56 55
59 59 58 58 58 57 56 56 56 57 57 56 55 55 55 55 54 54 54 54 54 54 54 54 54 55 56 56 56 56 56 57 56 56 56 55 55 54 55 55 55 55 55 55 55 56 56 56 57 57 58 59 59 60 61 62 63 64 64 64 64 64 64 64 64 64 64 64 64 64 64 64 64 64 64 64 64 64 63 62 61 60 58 57 56 55
58 59 60 61 61 60 59 58 57 58 59 59 58 58 58 58 58 57 57 57 57 57 57 57 57 57 57 57 58 59 59 59 59 58 58 57 57 57 57 57 57 58 58 58 58 58 58 59 59 59 60 61 62 62 63 64 65 65 66 66 66 66 66 67 67 67 67 66 66 66 66 66 66 66 65 65 65 64 64 63 62 60 59 57 56 56
57 59 60 62 63 63 62 61 60 61 62 62 61 60 59 59 60 60 60 60 60 59 59 59 59 59 59 59 60 60 60 60 60 60 60 59 59 59 59 60 60 60 60 60 60 61 61 61 62 62 63 63 64 65 66 66 67 68 68 68 69 69 69 69 69 70 70 70 69 69 69 69 69 68 68 67 66 65 64 63 62 60 59 57 57 57
56 58 59 61 63 63 63 63 64 65 65 64 63 62 60 60 61 61 61 62 62 62 61 61 61 61 61 61 61 61 62 62 62 62 62 61 61 62 62 62 62 62 62 62 63 63 64 64 64 65 66 67 67 68 69 69 70 70 71 71 71 71 71 72 72 72 73 73 72 72 72 71 71 71 70 69 67 66 65 64 62 61 59 58 57 58
56 56 57 59 61 62 63 65 66 66 66 65 64 63 62 61 62 62 62 63 63 63 62 62 63 63 63 63 63 63 64 64 65 65 65 65 65 65 66 66 65 65 65 66 66 66 67 67 68 68 68 69 70 71 71 72 73 73 73 73 74 74 74 74 75 75 75 75 74 73 73 73 73 72 71 70 69 68 66 65 63 61 59 57 56 57
55 56 56 56 58 59 60 62 64 64 64 64 64 64 63 64 64 64 64 65 65 65 65 65 66 66 66 67 67 67 68 68 68 69 69 69 70 70 70 69 68 68 69 70 71 71 71 71 71 71 72 72 73 73 74 75 75 76 76 76 76 76 76 77 77 77 77 76 75 74 74 74 74 74 73 72 71 70 68 67 65 63 60 58 57 58
56 56 56 56 56 57 57 58 58 58 59 61 61 61 61 62 63 65 66 66 67 68 68 68 68 68 68 69 69 69 70 70 71 71 71 72 73 72 71 70 70 70 72 74 75 75 74 73 72 73 74 74 75 75 76 76 77 77 78 78 78 78 78 78 78 78 78 77 77 76 76 76 76 76 75 74 73 71 70 69 68 65 63 61 61 61
58 58 58 57 57 57 57 58 57 56 57 58 57 56 57 58 59 61 62 63 64 64 64 64 64 64 64 65 66 65 65 65 66 67 68 70 71 70 69 69 69 69 71 74 76 74 72 71 72 72 73 73 73 74 74 75 75 76 76 77 77 78 78 78 78 78 78 77 77 77 77 77 77 77 76 75 73 72 71 70 69 68 66 65 65 65
60 60 60 59 59 60 60 60 60 59 58 57 56 56 57 57 58 59 60 60 60 60 60 60 60 61 61 61 62 61 61 60 60 61 61 62 64 64 64 65 65 65 66 70 72 71 69 68 69 69 69 69 69 69 70 70 71 72 72 73 74 75 75 75 75 75 75 75 75 75 76 75 76 76 75 73 72 71 71 71 70 69 68 68 68 68
62 63 62 63 64 64 64 63 62 60 59 58 58 58 58 59 59 60 60 61 60 60 60 61 61 61 61 61 61 61 61 61 60 60 59 59 60 60 60 61 62 63 64 67 69 69 67 66 66 66 66 66 66 66 67 67 68 68 68 69 69 70 71 71 71 71 70 71 71 71 71 71 72 72 72 71 69 69 69 69 69 69 68 68 68 69
64 64 65 66 67 68 67 66 64 62 61 60 61 61 61 61 62 63 63 62 61 62 64 64 64 63 63 62 62 62 62 62 61 61 60 60 60 60 60 60 61 62 63 64 66 66 65 64 64 64 64 65 66 66 66 67 67 67 67 68 68 68 68 69 68 67 66 66 67 67 68 68 68 69 69 68 66 65 65 65 65 65 65 65 66 66
67 67 67 67 69 69 69 67 65 63 63 63 64 64 65 65 66 66 65 63 64 66 67 66 66 66 65 65 65 64 64 64 63 62 62 61 61 61 61 61 61 62 62 63 64 64 64 63 63 63 64 65 65 66 66 67 67 68 68 68 69 69 69 68 68 67 66 65 65 65 66 67 67 68 68 67 65 63 61 61 62 61 61 61 62 62
68 69 69 69 70 71 71 69 66 65 65 65 67 68 69 69 69 68 67 67 68 69 69 69 68 68 68 68 67 67 67 67 67 66 66 65 65 65 64 64 64 64 64 65 65 66 66 66 66 66 66 67 67 67 67 68 68 69 69 69 70 70 70 70 69 69 68 67 67 67 67 67 68 68 68 68 66 64 62 61 61 61 60 60 60 60
69 70 70 71 71 72 72 71 69 67 67 67 69 70 71 71 71 70 70 71 72 72 72 72 72 71 71 71 71 71 71 70 70 70 70 70 70 70 69 69 69 69 69 69 69 69 69 70 70 70 70 70 70 70 69 70 70 71 71 71 72 72 71 71 70 70 70 70 70 70 70 70 70 71 71 70 69 68 66 65 64 63 62 62 62 61
68 69 70 71 72 72 73 72 71 69 69 70 71 72 72 72 72 72 73 73 74 74 74 74 74 74 74 74 74 74 74 74 74 74 74 74 74 74 74 74 74 73 73 73 73 73 73 74 74 74 73 73 73 72 71 71 71 72 73 73 74 74 74 73 73 72 72 72 72 73 73 73 73 74 74 74 73 72 71 70 69 68 66 65 65 64
66 68 69 70 71 72 73 73 72 71 71 72 73 73 74 74 74 74 74 75 76 76 76 77 77 77 77 77 77 77 77 77 76 76 76 76 77 77 77 77 77 77 77 77 77 78 77 77 77 77 76 76 75 75 74 74 73 73 74 75 76 77 76 76 75 75 74 74 75 75 76 76 76 76 77 78 78 77 76 75 74 73 72 70 68 67
65 66 67 68 69 71 72 72 72 72 72 72 73 74 75 75 75 76 76 77 77 77 78 78 79 79 79 79 79 79 79 79 79 79 79 79 80 80 80 80 80 80 80 80 80 80 79 79 78 78 78 78 78 77 76 75 74 74 74 76 78 78 78 78 78 77 77 77 77 78 78 79 79 79 80 80 81 81 81 80 79 78 77 75 74 72
65 65 66 67 68 69 70 70 71 71 72 72 73 74 75 76 76 77 77 78 78 79 79 80 80 80 81 81 81 82 82 82 82 82 82 83 83 83 83 83 83 83 83 83 83 82 82 81 80 80 81 81 81 80 78 77 75 74 73 75 76 76 76 76 77 77 77 78 79 80 80 81 82 83 83 83 83 84 85 84 83 82 82 81 80 78
63 64 65 66 67 67 68 68 69 69 70 70 71 72 73 75 76 77 78 78 79 79 80 80 81 81 82 82 83 84 84 84 85 85 85 85 85 86 86 86 86 86 86 85 85 85 85 85 85 85 85 85 85 83 81 80 78 76 74 74 75 75 75 75 75 75 76 77 78 79 80 81 82 83 85 85 86 86 87 87 86 86 86 86 84 83
59 61 63 64 66 66 67 68 68 68 69 69 69 70 71 72 73 75 76 77 78 79 80 81 81 82 83 83 84 85 85 85 86 86 86 87 86 87 87 87 87 87 87 86 86 86 86 87 87 87 87 86 86 85 84 84 83 81 80 79 78 78 77 76 76 76 76 77 78 78 79 80 81 82 84 85 86 87 88 88 87 87 88 89 87 86
54 56 58 60 62 64 65 66 67 68 69 69 70 70 71 71 72 73 74 74 75 76 78 79 80 81 81 82 83 83 84 85 85 85 86 86 87 87 87 87 86 86 87 87 87 87 87 87 87 87 86 86 85 84 84 84 84 84 83 82 81 80 79 79 79 79 79 79 80 80 81 81 81 81 82 84 85 86 86 87 87 87 88 88 88 89
50 52 53 55 57 59 60 62 64 66 67 68 69 70 70 71 71 72 72 73 74 74 75 76 77 78 79 79 80 81 82 83 83 84 84 85 86 86 85 85 85 85 86 87 87 88 88 87 87 87 87 86 86 85 84 83 82 80 79 78 77 77 77 77 78 79 79 81 82 82 83 84 83 82 82 83 85 85 85 86 86 86 86 87 88 89
47 49 50 51 53 54 55 57 58 60 61 62 64 65 67 67 68 69 70 71 72 73 74 74 74 75 76 77 78 79 80 81 82 82 83 83 83 83 83 84 84 85 85 86 86 87 87 87 87 87 86 86 86 85 84 83 81 78 76 74 72 71 71 71 72 73 75 77 79 81 82 82 83 83 82 82 84 85 86 85 85 85 85 86 87 88
Wind_Direction
247 247 248 249 250 252 253 254 254 254 255 255 255 255 255 256 257 258 258 259 259 260 260 260 260 261 262 263 263 263 264 264 264 265 267 268 269 270 270 270 270 270 270 270 271 271 271 272 272 272 273 274 276 277 278 279 279 280 280 282 283 284 284 282 279 276 274 273 274 276 276 277 277 277 277 275 273 269 263 259 256 255 253 251 251 252
246 246 248 249 251 251 251 251 252 252 253 253 253 253 254 255 256 257 258 258 259 260 260 261 261 261 262 263 263 263 263 264 264 265 266 267 268 268 268 268 268 268 268 268 269 269 270 271 272 273 274 276 277 278 278 279 279 279 279 280 282 284 285 285 285 284 283 282 283 282 282 283 282 281 277 273 271 268 262 256 251 249 249 249 250 251
245 246 247 248 249 249 249 250 251 251 252 252 252 253 253 254 255 256 257 258 258 260 260 261 261 261 261 261 262 262 262 263 264 264 264 265 265 266 266 266 266 267 267 267 268 268 269 271 272 274 275 276 277 277 278 279 279 279 279 280 281 283 284 284 284 284 283 282 281 279 278 279 280 279 277 275 271 266 260 254 248 245 246 247 246 245
245 245 246 246 247 248 249 250 250 251 251 251 252 252 253 254 255 256 257 258 259 260 260 261 261 261 261 261 261 261 261 262 262 262 263 263 263 264 265 265 266 267 267 267 267 269 270 271 272 273 275 276 276 276 276 277 278 278 279 280 281 281 281 282 283 283 282 280 279 276 274 273 271 270 271 270 269 265 260 255 252 249 246 247 246 245
244 245 245 245 246 247 248 249 249 250 250 251 251 252 253 255 256 257 258 259 260 260 261 262 262 262 262 262 261 261 261 261 261 261 261 262 262 263 264 265 266 267 267 267 268 270 271 271 271 272 272 273 274 274 275 276 276 277 278 278 279 278 278 278 278 278 277 276 276 277 277 274 272 270 269 266 263 260 255 253 253 252 251 250 250 252
244 244 245 245 246 247 247 248 248 249 249 250 251 253 255 256 258 259 260 260 261 261 261 262 262 261 261 261 261 261 260 260 261 261 261 261 262 263 263 264 266 267 267 268 269 270 270 270 270 271 272 273 273 274 275 276 276 276 275 274 275 276 276 275 275 275 274 273 273 273 273 273 274 273 272 270 267 263 258 253 251 251 252 252 254 256
243 243 244 245 246 246 246 247 247 248 249 250 252 254 256 258 259 260 261 261 261 260 260 261 260 260 260 260 260 259 259 259 259 260 260 261 262 263 264 265 265 266 268 268 269 268 269 269 271 272 273 274 275 275 276 276 275 274 273 273 273 275 276 277 276 275 274 272 270 267 266 266 268 269 270 271 270 268 265 261 258 257 257 257 258 260
243 244 245 245 246 246 246 247 247 248 249 251 253 254 256 258 259 260 260 260 260 260 260 259 259 259 258 259 259 259 258 258 258 259 260 262 262 263 263 264 264 265 267 268 268 268 268 270 272 274 275 275 275 276 275 275 275 275 275 276 276 277 278 278 277 275 272 270 267 264 262 261 262 262 264 265 266 265 263 262 262 261 262 262 263 264
243 244 244 245 245 246 246 247 248 248 249 251 253 254 256 257 258 259 260 260 260 260 259 259 259 259 258 258 258 258 258 258 259 259 260 261 261 261 261 262 262 263 265 267 268 269 270 271 272 273 274 274 274 275 275 276 277 278 279 279 280 280 279 277 276 274 271 268 266 264 262 261 261 261 261 262 262 262 261 261 262 262 263 264 265 266
242 242 242 243 244 244 245 246 247 248 249 250 252 253 254 256 257 258 258 258 259 259 259 258 258 258 257 257 257 258 259 259 260 260 260 259 259 259 259 260 260 261 263 266 268 269 269 269 270 270 271 272 273 274 275 276 278 280 281 282 282 281 279 277 274 272 270 268 267 266 265 264 264 263 263 263 264 264 264 264 264 264 265 265 266 267
241 241 241 241 242 243 244 245 246 247 248 249 250 251 252 254 255 256 257 258 258 258 258 257 257 257 257 256 256 257 258 259 260 260 259 258 258 257 257 258 259 260 262 265 267 267 267 268 268 268 270 271 272 273 275 277 279 281 283 283 283 281 278 276 274 272 271 270 270 269 269 268 267 267 267 267 267 267 267 267 267 266 265 265 265 266
241 241 241 242 242 243 244 245 246 247 248 248 249 251 252 253 254 255 256 257 257 257 257 256 256 256 256 256 256 256 257 258 258 259 258 258 257 257 257 258 258 260 261 263 265 266 266 266 267 268 269 271 274 276 277 279 281 282 284 285 284 282 280 278 275 273 271 271 270 269 268 267 267 268 269 269 269 268 267 267 267 267 267 267 266 267
241 242 242 243 244 245 246 246 247 247 248 248 249 250 251 253 253 254 255 256 256 256 255 255 255 255 255 255 255 255 255 255 256 256 257 257 256 256 257 257 259 260 261 263 265 267 267 268 269 269 270 273 276 278 279 281 283 286 288 287 287 285 282 278 274 272 270 269 269 268 268 268 269 271 272 271 270 269 268 268 267 268 268 268 268 267
242 243 243 243 244 245 245 246 246 246 247 248 249 250 251 252 253 253 253 253 253 253 253 254 254 255 255 255 254 254 254 253 253 253 254 255 255 256 256 257 258 259 260 262 264 267 270 271 270 272 275 277 279 280 280 281 286 290 290 290 291 287 280 275 273 271 269 269 270 271 272 272 272 273 273 273 272 271 269 269 270 270 270 269 267 266
243 243 243 243 243 244 244 244 245 246 247 248 249 250 251 251 251 251 251 251 251 252 252 253 254 255 254 253 252 252 253 253 253 252 253 253 254 255 255 256 256 257 257 258 260 264 267 270 273 278 282 284 283 280 281 286 291 290 283 279 277 271 268 266 268 272 272 272 273 273 273 272 271 271 272 272 272 273 273 272 272 272 270 268 266 264
242 242 242 243 244 244 245 245 245 246 247 248 249 249 249 249 249 249 249 250 251 251 251 252 253 252 252 251 251 251 252 252 252 252 252 253 253 253 253 253 254 254 256 257 258 261 265 270 276 282 286 289 285 281 286 292 287 267 252 250 249 251 257 260 262 267 271 272 274 274 274 272 270 268 268 268 269 270 272 274 274 274 272 270 267 264
242 242 242 243 244 245 246 246 246 246 247 247 248 249 249 248 248 249 249 249 250 250 251 251 251 250 250 251 251 251 251 251 251 251 251 252 252 252 252 251 251 252 254 256 259 263 268 273 274 270 269 272 272 280 287 274 254 244 240 241 241 245 252 258 260 263 265 268 272 274 274 272 271 269 268 269 271 272 273 274 275 276 276 275 273 271
242 243 243 242 242 243 244 245 246 246 247 247 247 248 249 249 248 249 248 249 249 249 249 250 250 249 249 250 250 250 250 249 250 250 251 252 252 252 250 250 249 250 251 253 256 263 268 269 264 246 239 243 245 253 254 238 237 240 239 239 242 244 247 252 258 261 262 266 270 272 273 273 273 273 273 274 275 276 277 277 278 279 280 279 280 279
242 243 243 243 242 242 242 244 244 245 246 246 246 247 248 249 248 248 248 248 248 249 249 250 250 250 250 250 250 249 249 249 249 250 251 251 251 251 250 249 248 249 251 252 253 253 246 248 252 242 233 234 234 233 230 226 233 239 240 241 244 245 247 250 256 262 264 266 269 272 272 273 273 273 273 274 274 274 275 276 277 277 278 279 281 282
243 243 244 244 243 243 242 243 244 244 244 245 245 246 247 247 248 248 248 248 247 248 249 249 249 249 250 250 249 249 249 250 250 250 251 251 252 252 252 251 249 247 249 249 245 236 225 226 237 240 236 235 236 237 234 229 231 238 241 242 244 247 250 252 254 259 263 264 266 268 269 269 270 271 271 271 271 270 271 272 273 274 275 276 277 278
244 244 245 245 245 245 244 244 244 244 244 244 244 245 245 245 246 247 247 247 246 245 245 246 247 247 248 248 249 249 249 249 249 250 251 251 252 253 253 253 251 247 245 244 241 233 225 221 225 232 235 235 238 242 241 234 232 239 244 243 244 245 247 250 251 253 257 260 262 264 265 265 266 268 269 270 270 270 270 271 272 273 274 274 275 275
244 244 244 245 245 246 246 246 246 246 246 245 244 244 244 244 244 245 245 246 245 244 244 244 245 245 247 248 248 248 248 248 248 248 249 250 251 253 254 254 254 251 245 241 238 235 231 226 225 229 233 235 237 242 244 238 235 239 243 244 245 243 242 245 248 249 255 261 263 263 264 265 266 267 268 269 269 270 270 270 271 271 271 270 270 270
243 243 245 246 246 247 247 247 247 246 246 246 245 244 244 244 243 243 243 244 244 244 244 244 244 246 247 248 248 248 248 248 248 248 249 250 251 252 254 255 255 254 250 244 239 235 234 232 230 230 233 236 238 241 245 244 242 242 245 248 249 245 242 243 246 250 258 263 264 264 265 266 268 269 270 271 271 271 271 271 271 270 269 268 267 266
243 243 244 246 246 245 246 246 245 245 245 245 245 244 244 244 243 243 243 243 244 245 246 246 246 247 248 248 249 249 249 249 249 250 249 250 251 252 255 255 254 253 251 247 242 237 236 236 234 233 233 237 240 241 245 247 248 249 250 251 253 250 247 247 250 255 261 264 263 263 264 266 268 269 271 272 273 273 273 273 273 272 272 270 269 267
243 242 243 244 244 244 245 245 244 244 244 243 243 243 242 243 243 243 243 244 244 245 246 247 247 248 249 250 251 251 252 252 252 251 251 251 250 250 253 255 254 252 251 248 245 241 239 238 238 237 236 237 240 242 245 248 251 253 254 254 254 254 254 256 257 259 262 263 263 263 264 266 268 269 271 272 273 273 274 274 275 275 274 274 272 271
243 243 242 243 244 244 243 243 243 242 242 242 241 241 241 242 244 244 245 245 245 246 247 248 249 250 251 252 253 253 254 254 253 253 252 252 251 249 251 255 256 255 254 251 248 245 244 243 242 242 242 241 242 243 245 247 250 252 254 255 256 257 258 259 259 259 260 262 263 265 266 267 269 270 272 273 273 274 274 275 275 275 275 274 273 273
243 244 243 243 244 243 242 243 244 243 243 243 243 243 243 244 245 246 246 246 246 247 247 248 249 251 252 253 253 254 254 254 255 255 254 254 253 252 252 254 255 256 256 254 251 248 246 245 245 246 246 247 247 247 247 248 249 251 253 255 258 259 259 259 259 259 260 262 264 266 267 269 270 271 273 273 274 274 274 275 274 274 273 273 272 271
240 242 242 242 243 243 242 243 244 245 245 245 245 245 245 246 246 246 247 247 247 247 248 248 249 251 252 253 254 254 255 255 255 256 256 255 255 254 254 254 254 255 255 254 253 251 249 247 247 247 247 248 249 250 251 251 252 253 255 257 258 259 260 260 260 261 261 263 264 266 267 269 270 271 272 273 274 275 275 275 274 273 273 272 270 269
239 241 242 241 242 242 243 243 244 245 246 245 245 245 246 246 246 246 247 247 247 248 248 249 249 251 252 253 254 255 256 257 256 256 257 257 257 256 256 255 255 255 255 254 254 252 251 250 249 249 249 250 250 251 252 254 255 257 258 259 260 260 261 262 262 262 263 263 264 265 266 268 269 270 271 272 272 273 274 273 273 273 272 271 270 268
239 240 242 243 242 242 242 242 243 244 245 245 244 244 245 245 246 247 247 247 248 248 249 250 250 251 253 254 255 256 257 257 258 258 258 258 258 257 257 257 256 255 255 255 255 254 253 252 251 251 251 251 252 253 254 255 256 258 259 261 261 262 262 263 263 264 264 264 265 265 266 267 267 268 269 269 270 271 271 271 271 271 270 269 268 268
240 240 241 243 244 244 244 244 243 244 244 245 245 244 245 246 247 247 248 249 249 249 250 251 252 253 253 254 255 256 257 257 258 258 258 258 258 257 257 257 256 256 256 256 256 256 255 255 254 254 253 253 253 254 255 256 257 258 259 261 262 263 263 264 265 265 266 266 266 266 267 267 267 267 267 267 268 268 268 268 268 268 267 267 267 267
242 242 241 242 243 245 246 246 246 246 246 248 249 249 249 249 249 249 250 250 251 251 251 252 253 254 254 254 255 255 256 257 257 257 257 257 258 258 257 257 257 257 257 256 256 257 257 257 257 256 256 256 256 256 257 257 258 259 260 262 263 264 265 265 266 267 267 267 268 268 268 268 268 268 267 267 267 266 266 265 265 265 265 265 265 266
245 246 245 245 245 245 245 246 247 248 249 250 251 252 252 252 252 253 253 253 253 254 254 253 254 254 255 255 255 255 256 257 257 258 258 258 258 258 258 258 259 259 259 259 259 258 258 258 258 258 259 259 259 260 260 261 261 261 262 263 264 264 265 265 265 265 266 267 267 267 268 268 268 267 267 267 266 266 265 264 263 263 263 263 263 263
247 248 249 249 250 249 248 248 249 251 252 253 253 253 253 253 254 254 255 255 255 256 255 255 254 254 254 255 255 255 255 256 257 257 258 258 259 259 259 260 261 261 262 261 261 260 259 260 260 261 261 261 262 262 263 263 263 264 264 264 264 264 264 264 264 264 265 265 265 265 265 266 266 266 266 266 266 265 265 264 263 262 261 260 260 259
247 248 249 250 251 252 252 252 252 253 254 254 254 254 254 253 254 254 254 255 255 255 256 256 256 256 256 256 255 254 254 255 255 256 257 258 259 259 260 261 261 261 261 261 261 261 262 263 263 263 263 264 264 264 264 264 264 264 264 264 264 264 263 264 264 264 264 265 265 265 265 265 265 265 265 265 265 265 265 264 263 261 259 259 258 257
247 247 247 248 249 251 252 253 253 253 253 254 255 255 255 254 254 254 254 254 255 255 256 257 258 258 258 257 257 256 255 254 254 254 255 257 258 259 260 259 259 259 260 261 262 263 263 264 263 263 263 263 264 264 264 264 264 264 264 264 264 264 264 264 264 264 264 265 265 265 265 265 266 266 266 266 266 266 265 264 263 262 260 258 257 257
247 247 246 246 247 247 248 250 251 252 253 254 255 255 256 256 256 256 256 256 256 256 257 257 257 258 258 258 258 258 257 256 255 254 254 255 255 256 257 257 256 256 256 259 261 262 262 262 262 263 263 263 263 263 263 263 264 264 264 264 265 265 265 265 265 264 264 264 264 264 265 265 265 265 265 265 265 264 264 263 263 262 261 259 259 258
247 247 247 246 246 246 246 247 248 250 252 254 255 255 256 257 257 257 258 259 259 260 260 259 258 258 258 258 258 258 258 258 257 256 254 253 252 252 251 252 252 251 251 253 256 258 259 259 260 261 262 263 263 264 264 264 264 265 265 265 265 265 266 266 265 265 265 264 264 264 264 264 264 264 264 263 262 261 261 261 261 261 260 260 260 259
248 248 248 248 248 248 248 248 247 248 249 251 253 254 255 256 256 256 257 258 260 261 261 261 262 262 261 261 261 261 261 260 259 258 257 256 255 253 252 251 251 251 252 253 255 256 258 258 258 258 259 261 262 263 264 265 265 266 266 266 266 266 266 266 266 266 265 265 265 264 264 264 264 263 263 262 261 260 260 260 260 260 259 259 259 259
247 248 248 248 250 251 251 251 250 249 249 249 250 251 253 254 255 256 257 258 258 259 260 261 262 263 264 265 265 266 266 266 265 264 264 262 261 259 258 257 256 256 256 256 257 259 259 260 260 259 259 259 259 260 261 262 263 264 264 265 266 266 266 266 267 267 266 266 266 265 265 265 265 265 265 264 263 262 261 260 260 260 260 259 259 259
246 247 247 247 248 250 251 252 252 252 251 251 251 251 252 254 255 256 257 258 258 259 260 261 262 262 263 264 265 266 267 268 268 269 269 268 268 267 266 264 263 262 262 262 262 262 262 262 262 262 261 261 260 260 260 261 261 262 262 263 263 264 265 265 266 267 267 267 267 266 266 266 266 266 266 266 266 265 263 261 261 260 260 260 259 259
245 246 247 247 248 249 250 250 251 251 251 252 252 253 253 254 256 257 257 258 258 260 261 261 262 263 263 264 264 265 266 267 267 268 268 269 269 269 269 269 268 267 267 266 266 265 265 265 264 264 263 262 261 261 261 261 261 262 262 262 262 263 263 264 265 266 266 267 267 267 267 267 267 267 267 267 267 266 265 264 262 261 260 259 259 259
246 247 248 249 249 250 250 250 250 250 250 250 251 252 253 254 255 256 257 258 259 260 260 261 262 262 263 264 264 265 265 266 266 267 267 268 268 269 269 269 269 269 269 269 268 268 268 267 267 266 265 265 264 263 262 261 261 262 262 262 262 262 262 262 262 263 264 265 266 266 267 267 267 267 268 267 267 267 266 266 265 263 262 260 259 259
246 247 247 249 250 251 251 252 251 250 250 250 251 252 253 254 254 255 256 257 258 259 260 261 262 262 263 264 265 265 265 266 266 267 267 267 268 268 268 268 269 269 269 269 269 268 268 268 268 268 268 267 267 266 264 263 262 262 262 262 262 261 261 261 260 260 260 261 262 263 264 265 265 266 267 267 268 267 267 267 266 266 265 263 262 260
247 247 248 248 249 250 251 252 252 252 252 252 252 252 253 254 255 255 256 256 257 258 259 260 261 263 263 264 265 266 266 267 267 268 268 268 268 268 268 269 269 269 269 269 269 269 269 269 270 270 270 270 269 268 267 265 263 262 261 261 261 260 260 260 260 259 259 259 259 259 260 261 262 263 263 265 266 267 267 267 267 267 267 267 266 265
249 249 249 250 250 250 251 252 252 252 252 252 252 253 254 254 255 255 256 257 257 258 259 259 260 261 262 263 264 265 266 266 267 268 268 269 269 270 270 270 270 271 271 271 272 272 273 273 273 273 273 273 272 271 270 268 266 265 264 263 262 261 260 260 259 259 259 258 258 258 258 258 259 260 261 262 263 264 265 266 266 267 267 267 267 267
248 249 250 251 251 252 252 252 253 253 253 253 253 253 253 254 254 255 256 256 257 258 259 259 260 261 261 262 263 263 264 265 266 266 267 267 268 269 270 270 271 271 272 272 273 274 274 275 274 274 274 274 274 273 273 272 271 270 268 267 267 266 264 263 262 261 259 259 258 257 257 257 257 257 258 259 260 261 262 263 264 265 265 266 266 266
249 249 250 251 252 253 253 254 254 255 255 255 255 255 254 254 254 254 255 255 256 257 257 258 259 260 260 261 262 263 263 264 265 266 267 267 268 268 269 270 270 271 272 273 273 273 273 273 272 272 272 272 273 273 273 273 273 273 272 271 270 269 268 267 266 264 263 262 261 260 259 258 257 257 257 257 257 258 259 260 261 262 263 264 265 265
252 251 251 251 252 252 253 254 254 255 255 256 256 256 256 256 256 256 256 256 256 257 257 258 259 259 260 261 262 262 263 264 265 266 266 267 268 268 268 269 270 271 272 272 272 272 272 272 272 272 273 273 273 272 272 272 271 270 270 269 269 268 268 267 267 266 266 265 264 263 262 261 259 258 258 258 258 258 258 258 259 259 260 262 263 263
254 254 254 253 253 253 253 253 253 254 254 254 255 256 256 257 257 258 258 258 258 259 259 259 259 260 261 262 262 263 264 264 265 265 266 266 267 268 269 269 270 270 270 271 271 271 272 272 273 273 273 274 274 274 273 273 272 271 269 268 267 266 266 266 265 265 265 264 264 263 263 262 261 260 259 259 259 259 259 259 259 259 259 260 261 262
254 254 254 254 254 255 255 255 255 255 256 256 257 257 258 258 259 259 259 260 260 260 260 261 261 261 262 262 262 263 263 264 265 265 265 266 267 268 269 269 269 269 269 270 270 270 271 271 272 272 272 272 273 273 273 274 274 274 273 272 271 269 268 266 265 264 263 263 262 262 261 261 261 261 260 260 260 260 260 260 260 260 260 259 260 260
Height
10579 10582 10584 10586 10589 10593 10598 10600 10602 10605 10607 10609 10610 10610 10611 10611 10612 10616 10620 10623 10623 10623 10625 10627 10629 10629 10629 10630 10631 10631 10630 10629 10627 10627 10628 10629 10631 10633 10633 10633 10634 10634 10634 10634 10636 10637 10638 10640 10641 10641 10642 10643 10644 10644 10644 10644 10644 10644 10642 10639 10638 10638 10639 10640 10641 10642 10642 10642 10642 10641 10640 10640 10640 10640 10641 10641 10641 10642 10643 10644 10645 10646 10647 10649 10650 10651
10572 10575 10578 10582 10586 10588 10591 10592 10594 10598 10600 10602 10602 10603 10604 10605 10607 10610 10614 10616 10616 10617 10618 10619 10621 10623 10623 10624 10624 10624 10623 10622 10622 10623 10624 10624 10625 10626 10626 10627 10627 10627 10627 10629 10630 10632 10633 10634 10635 10635 10637 10638 10638 10638 10639 10639 10639 10638 10637 10636 10634 10634 10634 10634 10635 10635 10635 10636 10636 10635 10635 10635 10635 10636 10637 10637 10638 10638 10639 10640 10641 10642 10644 10645 10647 10648
10567 10571 10575 10578 10579 10581 10583 10585 10588 10591 10593 10594 10595 10596 10597 10598 10601 10605 10608 10609 10610 10611 10612 10612 10614 10616 10617 10617 10617 10617 10616 10616 10616 10617 10618 10619 10619 10620 10620 10621 10621 10621 10622 10623 10624 10626 10628 10630 10630 10630 10632 10633 10634 10633 10633 10633 10633 10633 10632 10631 10631 10630 10630 10630 10631 10631 10631 10631 10632 10632 10631 10631 10631 10632 10633 10634 10634 10635 10636 10636 10638 10639 10641 10642 10643 10645
10563 10566 10569 10571 10572 10575 10577 10579 10582 10584 10586 10587 10588 10588 10590 10592 10596 10600 10601 10603 10604 10605 10605 10605 10607 10609 10609 10610 10610 10610 10610 10610 10610 10612 10612 10613 10614 10615 10615 10615 10615 10615 10616 10616 10619 10622 10624 10626 10626 10626 10627 10628 10629 10629 10628 10628 10628 10627 10627 10626 10626 10626 10626 10627 10627 10627 10627 10627 10627 10627 10628 10628 10628 10629 10629 10630 10631 10632 10633 10633 10635 10636 10638 10639 10641 10641
10559 10561 10563 10565 10567 10569 10572 10573 10576 10577 10579 10580 10581 10582 10584 10588 10591 10594 10596 10597 10599 10599 10598 10599 10601 10602 10602 10602 10603 10603 10604 10604 10604 10606 10606 10607 10609 10610 10610 10610 10610 10610 10609 10610 10615 10618 10620 10621 10622 10623 10623 10624 10624 10624 10624 10624 10624 10623 10622 10622 10622 10622 10623 10623 10624 10624 10624 10623 10623 10623 10623 10623 10624 10625 10626 10627 10628 10629 10630 10630 10631 10633 10635 10636 10637 10638
10553 10555 10557 10559 10561 10564 10566 10567 10569 10571 10572 10574 10574 10576 10579 10583 10586 10588 10590 10591 10592 10593 10592 10593 10594 10595 10596 10596 10596 10597 10598 10598 10599 10600 10600 10602 10604 10605 10605 10606 10606 10605 10603 10605 10610 10614 10615 10617 10618 10618 10619 10620 10620 10620 10620 10620 10620 10619 10618 10617 10618 10618 10619 10620 10621 10621 10621 10620 10620 10619 10619 10619 10619 10620 10622 10623 10624 10626 10626 10627 10628 10629 10631 10632 10633 10634
10548 10549 10551 10554 10556 10558 10559 10561 10562 10564 10566 10568 10569 10572 10575 10578 10580 10582 10584 10585 10586 10586 10587 10588 10588 10589 10590 10590 10590 10592 10592 10593 10594 10595 10595 10597 10600 10600 10601 10602 10602 10601 10598 10599 10605 10608 10610 10612 10614 10614 10614 10615 10616 10616 10616 10615 10615 10614 10614 10614 10614 10615 10616 10617 10618 10618 10618 10617 10616 10616 10615 10615 10615 10616 10617 10618 10620 10621 10622 10623 10624 10625 10627 10628 10629 10630
10542 10544 10547 10548 10550 10552 10553 10555 10557 10559 10561 10562 10564 10567 10570 10573 10575 10576 10577 10578 10580 10581 10581 10582 10583 10584 10585 10585 10585 10586 10587 10587 10588 10590 10591 10593 10595 10596 10596 10597 10597 10597 10594 10594 10599 10603 10605 10608 10610 10610 10610 10610 10611 10611 10611 10610 10609 10610 10610 10610 10611 10612 10613 10613 10613 10613 10613 10612 10612 10612 10611 10611 10611 10611 10612 10613 10614 10616 10617 10618 10619 10621 10622 10623 10624 10625
10536 10539 10541 10542 10544 10545 10547 10549 10551 10554 10556 10557 10559 10562 10565 10567 10569 10570 10572 10573 10574 10575 10576 10577 10578 10579 10581 10581 10581 10580 10581 10582 10584 10586 10588 10590 10591 10591 10592 10592 10593 10593 10590 10589 10593 10597 10600 10603 10606 10606 10605 10605 10606 10606 10606 10605 10605 10606 10606 10607 10608 10609 10609 10608 10608 10607 10607 10607 10606 10606 10607 10606 10606 10607 10607 10608 10609 10610 10611 10613 10615 10616 10617 10618 10618 10619
10530 10533 10534 10536 10538 10539 10541 10543 10546 10548 10550 10552 10554 10556 10559 10562 10563 10565 10566 10568 10569 10571 10571 10573 10573 10574 10576 10577 10576 10576 10576 10578 10579 10581 10583 10585 10586 10587 10587 10588 10589 10589 10586 10585 10587 10592 10595 10598 10601 10602 10602 10601 10601 10601 10601 10601 10601 10602 10603 10604 10604 10604 10603 10602 10601 10601 10601 10601 10601 10602 10602 10602 10602 10602 10602 10604 10604 10605 10607 10608 10610 10612 10613 10613 10613 10614
10524 10526 10528 10529 10531 10533 10535 10538 10540 10542 10544 10546 10548 10550 10553 10556 10558 10559 10561 10563 10564 10566 10567 10568 10568 10569 10571 10572 10572 10572 10572 10573 10575 10576 10578 10580 10581 10581 10582 10583 10584 10585 10583 10582 10582 10585 10589 10592 10596 10598 10598 10597 10596 10597 10597 10597 10598 10599 10600 10600 10599 10598 10597 10596 10596 10596 10596 10597 10597 10598 10599 10599 10598 10597 10598 10599 10600 10601 10601 10602 10604 10605 10607 10608 10609 10609
10517 10519 10521 10523 10525 10528 10530 10532 10535 10537 10538 10540 10542 10545 10548 10551 10553 10555 10556 10558 10559 10560 10561 10562 10563 10564 10565 10567 10568 10567 10568 10569 10570 10571 10572 10573 10575 10576 10577 10579 10580 10580 10580 10579 10578 10580 10583 10587 10591 10593 10594 10593 10592 10592 10593 10594 10595 10596 10596 10596 10594 10593 10592 10591 10591 10591 10591 10592 10593 10593 10594 10594 10594 10593 10593 10594 10595 10596 10596 10596 10597 10599 10600 10602 10603 10605
10511 10513 10516 10518 10520 10523 10525 10527 10530 10531 10532 10534 10536 10539 10542 10546 10549 10550 10551 10553 10554 10555 10555 10556 10558 10559 10561 10562 10563 10563 10564 10565 10565 10566 10567 10568 10569 10571 10572 10574 10575 10576 10576 10575 10574 10574 10577 10582 10586 10589 10590 10590 10589 10588 10589 10591 10592 10594 10593 10592 10590 10588 10587 10586 10585 10585 10586 10587 10587 10588 10588 10589 10589 10589 10589 10589 10590 10591 10591 10591 10592 10593 10595 10596 10598 10600
10506 10508 10510 10513 10515 10517 10519 10521 10523 10524 10526 10527 10530 10534 10537 10541 10543 10545 10545 10547 10548 10549 10549 10551 10553 10554 10556 10557 10557 10557 10558 10559 10560 10561 10562 10562 10564 10566 10567 10569 10570 10572 10573 10572 10571 10571 10572 10576 10581 10584 10586 10587 10587 10585 10586 10589 10591 10593 10592 10591 10589 10584 10579 10578 10578 10579 10581 10582 10582 10583 10584 10585 10585 10585 10584 10584 10585 10586 10587 10587 10588 10589 10591 10592 10593 10595
10500 10502 10504 10506 10508 10510 10512 10514 10516 10518 10520 10522 10526 10529 10532 10535 10537 10539 10539 10540 10542 10544 10545 10546 10548 10549 10551 10551 10551 10551 10552 10553 10555 10556 10557 10558 10560 10561 10563 10565 10566 10568 10568 10569 10568 10568 10569 10571 10576 10580 10582 10583 10583 10583 10584 10588 10592 10595 10595 10594 10589 10579 10570 10570 10573 10575 10577 10578 10578 10578 10579 10580 10581 10581 10580 10580 10580 10581 10581 10582 10583 10585 10586 10588 10589 10590
10492 10494 10497 10500 10502 10504 10505 10507 10510 10513 10515 10518 10520 10523 10525 10528 10530 10532 10534 10535 10536 10539 10541 10542 10543 10544 10544 10543 10545 10546 10546 10548 10549 10550 10552 10554 10555 10557 10559 10561 10562 10563 10564 10564 10564 10565 10567 10569 10574 10578 10579 10579 10580 10580 10584 10591 10595 10594 10590 10585 10578 10568 10563 10566 10570 10572 10573 10573 10574 10574 10575 10576 10577 10577 10576 10576 10576 10576 10576 10577 10578 10579 10580 10582 10584 10586
10485 10488 10491 10494 10496 10498 10499 10501 10504 10507 10510 10512 10515 10516 10518 10521 10523 10526 10528 10530 10531 10533 10535 10536 10537 10538 10537 10537 10539 10540 10541 10542 10543 10545 10547 10548 10551 10553 10555 10556 10557 10558 10559 10559 10560 10563 10566 10568 10572 10574 10574 10576 10580 10582 10588 10593 10589 10581 10575 10570 10566 10563 10562 10564 10566 10567 10568 10569 10571 10571 10571 10572 10573 10573 10573 10572 10571 10572 10572 10572 10572 10572 10573 10574 10577 10580
10480 10482 10485 10488 10490 10492 10493 10495 10498 10501 10504 10507 10509 10509 10511 10514 10518 10519 10521 10524 10526 10527 10529 10530 10531 10531 10531 10532 10533 10534 10535 10536 10537 10540 10542 10544 10546 10548 10550 10551 10552 10553 10554 10556 10559 10563 10566 10566 10567 10568 10566 10568 10575 10581 10584 10583 10576 10567 10563 10562 10562 10562 10561 10561 10561 10562 10563 10565 10567 10567 10567 10568 10568 10569 10568 10568 10567 10567 10567 10567 10567 10567 10567 10567 10569 10572
10475 10476 10478 10481 10483 10485 10487 10489 10493 10496 10498 10500 10502 10503 10505 10508 10511 10512 10515 10518 10520 10521 10523 10524 10525 10525 10526 10526 10528 10528 10529 10531 10532 10534 10537 10539 10541 10543 10544 10546 10548 10550 10551 10553 10557 10561 10564 10563 10562 10562 10560 10560 10565 10569 10571 10570 10566 10560 10557 10559 10561 10561 10559 10559 10559 10559 10560 10561 10562 10563 10563 10563 10564 10564 10564 10563 10563 10563 10562 10562 10563 10562 10561 10562 10564 10565
10469 10470 10472 10474 10476 10479 10482 10484 10487 10490 10491 10493 10496 10497 10499 10501 10503 10505 10508 10511 10514 10516 10517 10518 10519 10520 10520 10520 10522 10523 10524 10526 10527 10529 10531 10534 10536 10537 10539 10541 10544 10546 10547 10549 10553 10556 10556 10555 10555 10555 10554 10554 10555 10557 10558 10560 10559 10555 10553 10556 10560 10559 10557 10556 10557 10556 10556 10557 10558 10559 10559 10558 10558 10558 10558 10558 10558 10559 10559 10558 10558 10557 10557 10558 10559 10559
10464 10465 10466 10468 10470 10473 10477 10480 10482 10484 10485 10487 10490 10491 10493 10495 10496 10499 10501 10504 10507 10509 10511 10512 10513 10514 10513 10514 10516 10518 10519 10521 10522 10524 10526 10528 10530 10532 10533 10535 10538 10540 10542 10543 10546 10548 10548 10548 10548 10547 10545 10545 10546 10546 10547 10550 10551 10549 10548 10551 10555 10556 10554 10553 10554 10553 10553 10553 10554 10554 10554 10553 10553 10553 10553 10552 10553 10554 10554 10554 10553 10552 10552 10553 10553 10554
10458 10460 10460 10462 10465 10468 10471 10474 10476 10478 10479 10482 10484 10485 10486 10488 10490 10492 10495 10497 10500 10502 10504 10506 10507 10507 10507 10509 10511 10512 10514 10515 10517 10519 10521 10523 10525 10526 10527 10529 10530 10532 10534 10536 10539 10541 10543 10543 10542 10540 10538 10538 10539 10538 10538 10541 10545 10545 10543 10545 10549 10550 10549 10548 10549 10550 10550 10550 10549 10549 10549 10548 10547 10547 10547 10546 10547 10548 10549 10549 10548 10548 10548 10548 10548 10548
10452 10454 10454 10457 10461 10464 10466 10469 10471 10472 10473 10475 10478 10479 10480 10482 10484 10486 10488 10490 10492 10494 10497 10499 10500 10501 10502 10503 10504 10505 10507 10509 10511 10513 10515 10517 10519 10521 10522 10523 10523 10524 10526 10529 10532 10534 10535 10536 10536 10535 10534 10533 10533 10532 10532 10534 10538 10540 10540 10540 10543 10545 10545 10545 10545 10545 10545 10545 10544 10544 10543 10542 10541 10541 10540 10540 10540 10541 10542 10542 10542 10542 10542 10542 10542 10542
10446 10448 10450 10452 10455 10458 10461 10463 10465 10467 10468 10469 10471 10473 10474 10475 10477 10479 10481 10483 10485 10488 10491 10492 10494 10495 10495 10496 10497 10499 10500 10503 10505 10507 10510 10512 10514 10516 10516 10514 10515 10517 10518 10521 10524 10526 10527 10529 10529 10530 10529 10528 10528 10528 10527 10528 10530 10533 10535 10536 10537 10539 10540 10540 10540 10539 10539 10538 10538 10537 10537 10535 10534 10534 10533 10533 10534 10534 10535 10535 10535 10535 10535 10535 10535 10535
10440 10442 10444 10446 10449 10453 10456 10457 10459 10460 10461 10462 10464 10466 10468 10468 10470 10472 10474 10477 10480 10482 10484 10485 10486 10488 10488 10489 10491 10492 10494 10496 10498 10500 10503 10505 10508 10510 10508 10505 10507 10510 10511 10513 10516 10518 10520 10521 10521 10521 10522 10522 10522 10522 10522 10522 10523 10525 10527 10530 10532 10533 10534 10534 10533 10533 10532 10531 10530 10530 10529 10528 10527 10526 10526 10526 10527 10527 10527 10527 10527 10527 10527 10527 10527 10527
10432 10434 10438 10441 10443 10447 10449 10450 10450 10451 10452 10455 10457 10459 10461 10462 10464 10467 10469 10472 10475 10476 10478 10479 10480 10481 10482 10483 10485 10486 10487 10489 10490 10492 10495 10497 10500 10503 10501 10498 10500 10503 10504 10507 10509 10511 10513 10514 10514 10514 10514 10515 10516 10516 10516 10517 10517 10518 10519 10522 10524 10526 10526 10526 10526 10525 10524 10523 10522 10521 10521 10520 10520 10519 10518 10518 10519 10519 10520 10520 10519 10519 10519 10519 10519 10519
10426 10428 10432 10435 10437 10439 10441 10442 10442 10444 10446 10448 10450 10453 10455 10457 10459 10461 10464 10466 10469 10470 10471 10473 10474 10474 10475 10477 10478 10479 10480 10481 10483 10484 10487 10489 10491 10494 10494 10493 10494 10495 10496 10498 10501 10503 10505 10507 10507 10507 10507 10508 10509 10510 10510 10511 10512 10512 10513 10515 10516 10517 10518 10518 10517 10517 10517 10516 10515 10513 10513 10513 10512 10511 10511 10511 10511 10511 10512 10513 10512 10512 10512 10512 10512 10512
10419 10420 10425 10428 10429 10431 10434 10435 10436 10437 10440 10442 10444 10447 10449 10451 10453 10455 10457 10460 10462 10463 10465 10466 10467 10467 10468 10469 10470 10471 10472 10474 10475 10477 10478 10481 10482 10484 10485 10486 10486 10487 10488 10490 10492 10494 10496 10498 10499 10500 10500 10501 10502 10503 10504 10504 10505 10505 10506 10507 10507 10508 10508 10508 10509 10509 10509 10509 10508 10506 10506 10505 10505 10505 10504 10503 10503 10503 10504 10504 10505 10505 10505 10505 10505 10505
10412 10414 10417 10420 10421 10423 10426 10428 10429 10430 10432 10435 10438 10440 10442 10444 10446 10448 10450 10452 10454 10456 10457 10458 10460 10460 10461 10462 10463 10464 10465 10466 10468 10469 10471 10472 10474 10476 10477 10477 10478 10479 10480 10481 10483 10485 10486 10488 10490 10492 10492 10493 10494 10495 10495 10496 10496 10496 10497 10497 10498 10498 10499 10499 10500 10500 10501 10501 10500 10499 10499 10498 10498 10498 10497 10497 10496 10496 10496 10496 10497 10498 10498 10498 10498 10498
10407 10408 10410 10412 10414 10416 10418 10420 10422 10423 10424 10427 10430 10432 10435 10436 10438 10440 10442 10444 10446 10448 10450 10451 10452 10453 10455 10456 10456 10457 10458 10458 10460 10461 10463 10464 10466 10467 10468 10469 10470 10471 10472 10473 10474 10476 10477 10480 10482 10483 10485 10485 10485 10486 10486 10487 10487 10487 10487 10487 10488 10488 10489 10490 10490 10491 10491 10492 10492 10491 10491 10491 10491 10491 10491 10490 10490 10489 10489 10489 10490 10491 10491 10491 10491 10490
10401 10401 10403 10405 10406 10408 10411 10413 10415 10415 10416 10418 10422 10425 10428 10430 10431 10433 10435 10437 10439 10441 10443 10444 10445 10446 10448 10449 10449 10449 10450 10451 10452 10453 10455 10456 10458 10459 10460 10461 10462 10463 10464 10465 10466 10467 10469 10471 10473 10474 10475 10476 10476 10476 10477 10477 10477 10478 10478 10478 10478 10479 10480 10481 10481 10481 10481 10482 10482 10482 10482 10483 10483 10483 10483 10483 10483 10482 10483 10483 10483 10483 10484 10485 10485 10484
10394 10395 10398 10398 10399 10402 10404 10406 10407 10407 10409 10413 10416 10419 10422 10423 10424 10426 10427 10429 10431 10433 10435 10437 10437 10438 10440 10441 10441 10441 10442 10443 10444 10445 10446 10448 10449 10450 10451 10453 10454 10455 10456 10457 10458 10459 10460 10461 10463 10464 10465 10465 10466 10467 10467 10468 10469 10469 10470 10470 10471 10471 10472 10472 10472 10472 10471 10472 10472 10472 10473 10473 10472 10472 10473 10473 10474 10474 10475 10476 10476 10477 10478 10479 10479 10478
10389 10390 10392 10392 10393 10396 10397 10398 10399 10401 10404 10408 10410 10413 10415 10416 10417 10419 10420 10422 10423 10425 10427 10429 10430 10430 10432 10433 10433 10433 10433 10434 10434 10435 10437 10439 10440 10441 10443 10444 10446 10447 10448 10449 10450 10451 10451 10452 10453 10454 10455 10456 10456 10457 10458 10459 10459 10460 10461 10462 10462 10463 10463 10462 10462 10462 10461 10462 10463 10463 10462 10462 10461 10461 10462 10463 10465 10465 10466 10467 10468 10470 10472 10473 10474 10472
10383 10384 10386 10387 10388 10389 10391 10392 10393 10396 10400 10402 10403 10405 10407 10409 10409 10410 10412 10413 10414 10416 10417 10419 10420 10422 10423 10423 10424 10425 10424 10425 10425 10427 10428 10429 10430 10432 10434 10436 10438 10439 10440 10440 10439 10440 10441 10442 10444 10445 10446 10446 10447 10447 10448 10448 10449 10450 10451 10452 10452 10452 10452 10452 10451 10451 10451 10452 10453 10453 10452 10452 10451 10451 10452 10453 10455 10455 10457 10458 10460 10462 10465 10466 10467 10465
10376 10378 10379 10381 10381 10382 10384 10386 10388 10392 10394 10393 10395 10398 10400 10400 10401 10402 10402 10403 10404 10405 10407 10408 10410 10412 10413 10413 10414 10415 10416 10416 10417 10418 10419 10420 10421 10423 10426 10429 10430 10430 10429 10428 10427 10429 10432 10434 10435 10436 10436 10436 10437 10438 10438 10438 10438 10439 10439 10440 10440 10441 10441 10441 10441 10441 10442 10442 10443 10443 10442 10441 10441 10441 10442 10444 10445 10446 10447 10448 10449 10452 10456 10457 10458 10456
10368 10370 10371 10373 10375 10376 10377 10379 10381 10384 10384 10385 10388 10390 10391 10391 10392 10392 10393 10393 10394 10396 10398 10399 10401 10402 10403 10403 10403 10405 10407 10408 10409 10410 10411 10412 10413 10415 10418 10420 10421 10421 10419 10416 10415 10420 10424 10425 10425 10425 10425 10425 10426 10426 10427 10427 10427 10427 10428 10428 10428 10428 10429 10429 10430 10431 10432 10432 10433 10432 10431 10431 10431 10431 10432 10434 10435 10436 10437 10438 10439 10441 10445 10447 10447 10447
10359 10361 10364 10366 10367 10368 10369 10370 10372 10375 10377 10379 10381 10381 10381 10382 10383 10383 10384 10385 10386 10388 10390 10391 10392 10393 10393 10394 10394 10395 10397 10399 10401 10402 10404 10406 10407 10409 10410 10411 10412 10413 10412 10407 10406 10411 10414 10414 10414 10414 10415 10415 10415 10415 10416 10416 10416 10416 10416 10417 10417 10417 10417 10417 10418 10419 10420 10421 10421 10421 10421 10421 10421 10421 10422 10423 10425 10426 10426 10427 10428 10430 10432 10434 10435 10436
10351 10353 10355 10357 10357 10357 10359 10362 10365 10368 10371 10372 10372 10372 10373 10373 10374 10375 10375 10376 10378 10380 10380 10381 10382 10383 10384 10385 10385 10387 10388 10389 10391 10393 10395 10398 10399 10401 10402 10402 10402 10403 10403 10400 10399 10401 10403 10405 10405 10405 10405 10405 10405 10405 10405 10406 10406 10406 10406 10406 10406 10406 10406 10406 10406 10408 10409 10409 10410 10410 10410 10410 10410 10410 10410 10412 10413 10415 10416 10416 10417 10419 10421 10423 10424 10424
10343 10344 10346 10347 10346 10348 10350 10354 10358 10362 10363 10364 10363 10364 10364 10364 10364 10365 10366 10370 10372 10371 10370 10370 10371 10372 10374 10375 10376 10377 10379 10380 10382 10384 10386 10388 10389 10390 10392 10392 10393 10393 10393 10392 10392 10392 10393 10394 10395 10395 10395 10395 10395 10395 10396 10396 10396 10396 10396 10396 10396 10396 10396 10396 10397 10398 10399 10399 10399 10399 10399 10399 10399 10399 10399 10400 10402 10405 10406 10407 10408 10409 10411 10412 10413 10413
10334 10335 10337 10338 10338 10339 10341 10345 10350 10354 10357 10357 10356 10355 10355 10355 10355 10356 10359 10364 10363 10360 10359 10361 10363 10364 10365 10366 10367 10368 10369 10370 10372 10374 10375 10376 10378 10379 10380 10381 10382 10383 10383 10383 10383 10383 10383 10384 10384 10385 10385 10386 10386 10386 10387 10387 10387 10387 10387 10387 10386 10386 10386 10387 10388 10389 10390 10390 10390 10390 10389 10389 10388 10387 10387 10389 10391 10394 10397 10398 10399 10399 10401 10402 10403 10403
10324 10325 10327 10329 10330 10331 10332 10336 10341 10346 10349 10349 10348 10347 10346 10346 10346 10349 10353 10354 10352 10350 10351 10353 10354 10355 10357 10358 10359 10359 10360 10361 10362 10363 10364 10365 10366 10367 10368 10369 10370 10371 10371 10372 10372 10372 10372 10373 10373 10374 10374 10375 10376 10377 10377 10378 10378 10378 10378 10378 10377 10376 10377 10379 10379 10380 10380 10381 10380 10380 10380 10379 10378 10377 10377 10378 10380 10383 10385 10387 10388 10389 10391 10392 10393 10394
10315 10316 10318 10320 10321 10322 10324 10327 10331 10336 10339 10340 10339 10339 10338 10338 10340 10343 10344 10343 10343 10343 10344 10345 10346 10347 10348 10349 10350 10350 10351 10352 10353 10354 10354 10355 10355 10355 10356 10356 10357 10358 10359 10359 10360 10361 10361 10361 10361 10362 10363 10364 10365 10366 10367 10368 10368 10368 10368 10368 10367 10367 10368 10370 10370 10370 10371 10371 10370 10370 10369 10369 10369 10368 10368 10368 10369 10371 10373 10375 10377 10378 10380 10382 10382 10384
10307 10308 10309 10311 10312 10314 10315 10317 10321 10326 10329 10329 10328 10329 10329 10330 10333 10334 10334 10334 10335 10335 10335 10336 10337 10338 10338 10339 10340 10341 10342 10342 10343 10344 10344 10344 10344 10344 10345 10345 10345 10346 10346 10347 10348 10348 10348 10348 10348 10349 10350 10351 10353 10355 10356 10358 10359 10358 10358 10358 10356 10356 10358 10360 10360 10361 10361 10361 10360 10359 10358 10358 10358 10358 10357 10357 10358 10360 10361 10363 10364 10366 10369 10371 10372 10374
10298 10300 10300 10302 10303 10305 10306 10308 10311 10316 10318 10318 10319 10320 10320 10322 10324 10324 10325 10325 10325 10325 10326 10327 10327 10328 10329 10329 10330 10330 10331 10332 10333 10333 10334 10334 10334 10334 10333 10334 10334 10334 10335 10335 10335 10335 10336 10336 10336 10337 10337 10338 10339 10341 10343 10345 10347 10348 10347 10346 10344 10345 10347 10348 10349 10351 10352 10351 10351 10350 10348 10348 10348 10348 10346 10345 10345 10347 10349 10351 10352 10353 10355 10358 10360 10363
10289 10290 10291 10293 10295 10296 10296 10298 10301 10304 10307 10308 10310 10311 10311 10313 10314 10315 10316 10316 10316 10317 10317 10318 10318 10319 10319 10319 10319 10320 10320 10321 10321 10322 10322 10322 10321 10321 10322 10322 10322 10322 10322 10322 10322 10322 10323 10324 10325 10325 10325 10324 10325 10326 10327 10329 10332 10334 10334 10332 10331 10332 10334 10336 10337 10339 10340 10340 10340 10340 10339 10338 10337 10337 10336 10336 10335 10335 10336 10338 10340 10341 10342 10345 10347 10350
10280 10281 10283 10284 10285 10286 10288 10289 10291 10293 10296 10298 10300 10301 10302 10303 10304 10305 10306 10306 10307 10307 10308 10308 10309 10309 10309 10309 10309 10309 10309 10309 10309 10310 10310 10309 10309 10308 10309 10309 10309 10309 10308 10308 10308 10309 10310 10311 10312 10312 10311 10310 10308 10309 10311 10312 10315 10319 10320 10319 10318 10320 10322 10323 10325 10326 10327 10327 10328 10328 10328 10328 10327 10326 10326 10326 10326 10324 10323 10325 10328 10329 10330 10332 10334 10336
10271 10273 10274 10275 10276 10277 10278 10280 10282 10283 10285 10287 10289 10291 10292 10293 10293 10294 10295 10296 10296 10297 10298 10298 10299 10299 10299 10299 10298 10298 10298 10298 10298 10298 10298 10298 10297 10297 10297 10297 10296 10296 10296 10296 10297 10297 10298 10298 10297 10296 10296 10295 10293 10293 10295 10297 10299 10302 10305 10305 10305 10305 10306 10308 10310 10311 10312 10313 10313 10314 10314 10316 10316 10315 10314 10314 10315 10314 10313 10314 10317 10318 10317 10317 10321 10324
10263 10264 10265 10266 10267 10269 10269 10270 10273 10274 10275 10276 10278 10280 10281 10282 10283 10284 10284 10285 10286 10286 10287 10287 10288 10288 10287 10287 10287 10287 10287 10287 10287 10287 10286 10286 10286 10286 10286 10285 10285 10284 10285 10285 10286 10286 10285 10284 10282 10282 10282 10282 10282 10282 10283 10283 10284 10286 10287 10289 10290 10290 10291 10293 10294 10295 10296 10297 10297 10298 10299 10300 10301 10302 10302 10301 10302 10302 10302 10303 10306 10307 10305 10305 10309 10311
10253 10255 10256 10257 10258 10259 10260 10262 10263 10264 10265 10266 10267 10268 10269 10270 10270 10271 10272 10273 10274 10275 10276 10276 10276 10276 10276 10276 10277 10277 10276 10276 10276 10276 10276 10275 10274 10274 10274 10275 10275 10274 10274 10273 10272 10271 10270 10269 10269 10269 10269 10269 10270 10270 10270 10269 10270 10270 10272 10273 10275 10276 10277 10279 10279 10280 10281 10281 10281 10282 10283 10283 10285 10287 10288 10288 10288 10289 10290 10290 10293 10296 10295 10295 10296 10296
10244 10245 10246 10247 10248 10249 10250 10251 10252 10253 10253 10255 10255 10256 10257 10258 10259 10260 10261 10262 10263 10264 10264 10265 10265 10266 10266 10266 10266 10266 10265 10265 10265 10265 10265 10263 10262 10262 10263 10264 10264 10263 10262 10260 10259 10257 10256 10257 10257 10257 10256 10256 10255 10255 10254 10254 10254 10255 10256 10258 10260 10262 10264 10266 10266 10267 10268 10267 10266 10267 10267 10266 10268 10271 10274 10275 10275 10275 10276 10277 10278 10281 10284 10285 10284 10282
10236 10237 10237 10238 10239 10239 10240 10241 10242 10243 10244 10245 10246 10247 10248 10249 10250 10250 10251 10251 10251 10252 10253 10254 10255 10255 10255 10255 10255 10255 10253 10252 10253 10253 10252 10251 10251 10252 10252 10252 10251 10250 10248 10247 10247 10245 10244 10244 10244 10244 10243 10242 10241 10241 10240 10240 10240 10240 10241 10243 10245 10247 10250 10252 10252 10253 10253 10252 10252 10252 10252 10253 10254 10256 10258 10261 10262 10262 10262 10264 10265 10267 10269 10270 10271 10271